Sturgeon Bay, WI

4:16 AM CDT on August 17, 2017 (GMT -0500)
Door County Cherryland

Weather History for KSUE - March, 2014

Change the Weather History Date:

Thursday, March 27, 2014

  Actual Average Record
Temperature  
Mean Temperature 32 °F -  
Max Temperature 35 °F 42 °F 72 °F (1946)
Min Temperature 28 °F 26 °F 2 °F (1965)
Degree Days  
Heating Degree Days 34    
Moisture  
Dew Point 30 °F    
Average Humidity 86    
Maximum Humidity 93    
Minimum Humidity 75    
Precipitation  
Precipitation 0.36 in - - ()
Sea Level Pressure  
Sea Level Pressure 29.68 in    
Wind  
Wind Speed 15 mph (SSE)    
Max Wind Speed 20 mph    
Max Gust Speed 30 mph    
Visibility 5 miles    
Events      
Averages and records for this station are not official NWS values.
T = Trace of Precipitation, MM = Missing Value Source: NWS Daily Summary

Daily Weather History Graph

Daily Weather History Graph

Search for Another Location

Airport or City:

Trip Planner

Search our weather history database for the weather conditions in past years. The results will help you decide how hot, cold, wet, or windy it might be!

Date:

Astronomy

Mar. 27, 2014 Rise Set
Actual Time 6:39 AM CDT 7:11 PM CDT
Civil Twilight 6:10 AM CDT 7:40 PM CDT
Nautical Twilight 5:35 AM CDT 8:15 PM CDT
Astronomical Twilight 4:59 AM CDT 8:51 PM CDT
Moon 4:39 AM CDT (3/27) 3:50 PM CDT (3/27)
Length of Visible Light 13h 30m
Length of Day
12h 31m
Waning Crescent, 13% of the Moon is Illuminated
Mar 27
Waning Crescent
Mar 30
New
Apr 7
First Quarter
Apr 15
Full
Apr 22
Last Quarter

Hourly Weather History & Observations

Time (CDT) Temp. Windchill Dew Point Humidity Pressure Visibility Wind Dir Wind Speed Gust Speed Precip Events Conditions
12:15 AM 28.4 °F 16.6 °F 24.8 °F 86% 29.95 in 0.8 mi South 16.1 mph 20.7 mph N/A   Overcast
12:35 AM 28.4 °F 17.5 °F 26.6 °F 93% 29.94 in 0.2 mi South 13.8 mph 26.5 mph N/A   Overcast
12:55 AM 28.4 °F 17.0 °F 26.6 °F 93% 29.93 in 0.2 mi South 15.0 mph - N/A   Overcast
1:15 AM 28.4 °F 16.2 °F 26.6 °F 93% 29.91 in 0.2 mi SSE 17.3 mph - N/A   Overcast
1:35 AM 30.2 °F 18.1 °F 28.4 °F 93% 29.91 in 0.2 mi SSE 18.4 mph 24.2 mph N/A   Overcast
1:55 AM 28.4 °F 16.2 °F 26.6 °F 93% 29.89 in 0.2 mi SSE 17.3 mph 29.9 mph N/A   Overcast
2:15 AM 30.2 °F 17.8 °F 26.6 °F 86% 29.88 in 0.5 mi SSE 19.6 mph - N/A   Overcast
2:35 AM 30.2 °F 19.3 °F 26.6 °F 86% 29.87 in 1.5 mi SSE 15.0 mph 21.9 mph N/A   Overcast
2:55 AM 30.2 °F 19.8 °F 26.6 °F 86% 29.86 in 5.0 mi SSE 13.8 mph 23.0 mph N/A   Mostly Cloudy
3:15 AM 32.0 °F 21.6 °F 24.8 °F 75% 29.85 in 10.0 mi SSE 15.0 mph 21.9 mph N/A   Overcast
3:35 AM 32.0 °F 21.2 °F 24.8 °F 75% 29.84 in 10.0 mi South 16.1 mph 21.9 mph N/A   Overcast
3:55 AM 32.0 °F 21.2 °F 24.8 °F 75% 29.83 in 7.0 mi South 16.1 mph 25.3 mph N/A   Overcast
4:15 AM 32.0 °F 20.5 °F 24.8 °F 75% 29.82 in 3.0 mi South 18.4 mph 25.3 mph N/A   Overcast
4:35 AM 30.2 °F 19.3 °F 26.6 °F 86% 29.82 in 2.5 mi South 15.0 mph 21.9 mph N/A   Overcast
4:55 AM 30.2 °F 20.2 °F 26.6 °F 86% 29.81 in 4.0 mi SSE 12.7 mph 20.7 mph N/A   Mostly Cloudy
5:15 AM 32.0 °F 22.1 °F 26.6 °F 80% 29.80 in 10.0 mi SSE 13.8 mph 19.6 mph N/A   Overcast
5:35 AM 33.8 °F 24.3 °F 26.6 °F 75% 29.79 in 10.0 mi SSE 13.8 mph 20.7 mph N/A   Overcast
5:55 AM 33.8 °F 24.3 °F 26.6 °F 75% 29.78 in 10.0 mi South 13.8 mph 20.7 mph N/A   Overcast
6:15 AM 33.8 °F 24.3 °F 26.6 °F 75% 29.77 in 10.0 mi South 13.8 mph 20.7 mph N/A   Overcast
6:35 AM 33.8 °F 24.3 °F 26.6 °F 75% 29.77 in 10.0 mi SSE 13.8 mph 19.6 mph N/A   Overcast
6:55 AM 33.8 °F 23.9 °F 26.6 °F 75% 29.76 in 10.0 mi South 15.0 mph 19.6 mph N/A   Overcast
7:15 AM 33.8 °F 24.3 °F 26.6 °F 75% 29.76 in 10.0 mi South 13.8 mph - N/A   Overcast
7:35 AM 33.8 °F 24.8 °F 26.6 °F 75% 29.75 in 10.0 mi South 12.7 mph - N/A   Overcast
7:55 AM 33.8 °F 23.9 °F 28.4 °F 81% 29.74 in 10.0 mi South 15.0 mph 20.7 mph N/A   Overcast
8:15 AM 33.8 °F 23.5 °F 28.4 °F 81% 29.74 in 10.0 mi South 16.1 mph - 0.01 in   Overcast
8:35 AM 35.6 °F 25.5 °F 28.4 °F 75% 29.73 in 10.0 mi South 17.3 mph - 0.01 in   Overcast
8:55 AM 33.8 °F 23.9 °F 28.4 °F 81% 29.73 in 10.0 mi South 15.0 mph 20.7 mph 0.01 in   Overcast
9:15 AM 33.8 °F 23.5 °F 28.4 °F 81% 29.73 in 10.0 mi South 16.1 mph - N/A   Overcast
9:35 AM 35.6 °F 25.9 °F 30.2 °F 81% 29.73 in 10.0 mi South 16.1 mph 21.9 mph N/A   Overcast
9:55 AM 35.6 °F 25.9 °F 30.2 °F 81% 29.72 in 8.0 mi South 16.1 mph - N/A   Overcast
10:15 AM 33.8 °F 23.5 °F 30.2 °F 87% 29.73 in 5.0 mi South 16.1 mph 23.0 mph N/A   Overcast
10:35 AM 33.8 °F 23.2 °F 30.2 °F 87% 29.72 in 4.0 mi South 17.3 mph - N/A   Overcast
10:55 AM 33.8 °F 23.2 °F 30.2 °F 87% 29.72 in 4.0 mi South 17.3 mph 21.9 mph N/A   Overcast
11:15 AM 33.8 °F 23.5 °F 30.2 °F 87% 29.71 in 4.0 mi South 16.1 mph - N/A   Overcast
11:35 AM 33.8 °F 23.9 °F 30.2 °F 87% 29.71 in 3.0 mi South 15.0 mph - N/A   Overcast
11:55 AM 33.8 °F 23.9 °F 30.2 °F 87% 29.70 in 3.0 mi South 15.0 mph - N/A   Overcast
12:15 PM 33.8 °F 23.2 °F 30.2 °F 87% 29.69 in 3.0 mi South 17.3 mph 21.9 mph N/A   Overcast
12:35 PM 33.8 °F 23.5 °F 30.2 °F 87% 29.68 in 4.0 mi South 16.1 mph 21.9 mph N/A   Overcast
12:55 PM 33.8 °F 23.5 °F 30.2 °F 87% 29.67 in 5.0 mi South 16.1 mph 24.2 mph N/A   Overcast
1:15 PM 33.8 °F 22.8 °F 30.2 °F 87% 29.66 in 5.0 mi South 18.4 mph 21.9 mph N/A   Overcast
1:35 PM 35.6 °F 25.9 °F 30.2 °F 81% 29.66 in 7.0 mi South 16.1 mph 25.3 mph N/A   Overcast
1:55 PM 35.6 °F 27.1 °F 30.2 °F 81% 29.65 in 6.0 mi South 12.7 mph - N/A   Overcast
2:15 PM 35.6 °F 26.2 °F 30.2 °F 81% 29.64 in 7.0 mi South 15.0 mph 20.7 mph N/A   Overcast
2:35 PM 35.6 °F 27.1 °F 30.2 °F 81% 29.62 in 7.0 mi South 12.7 mph - N/A   Overcast
2:55 PM 33.8 °F 24.8 °F 30.2 °F 87% 29.62 in 6.0 mi South 12.7 mph - N/A   Overcast
3:15 PM 33.8 °F 23.9 °F 30.2 °F 87% 29.62 in 5.0 mi South 15.0 mph - N/A   Overcast
3:35 PM 33.8 °F 24.3 °F 32.0 °F 93% 29.60 in 4.0 mi South 13.8 mph - N/A   Overcast
3:55 PM 33.8 °F 25.3 °F 30.2 °F 87% 29.60 in 4.0 mi South 11.5 mph - N/A   Overcast
4:15 PM 33.8 °F 24.3 °F 30.2 °F 87% 29.60 in 3.0 mi South 13.8 mph 19.6 mph N/A   Overcast
4:35 PM 33.8 °F 23.9 °F 32.0 °F 93% 29.58 in 2.0 mi South 15.0 mph - 0.01 in   Overcast
4:55 PM 33.8 °F 24.8 °F 32.0 °F 93% 29.57 in 5.0 mi South 12.7 mph 17.3 mph 0.03 in   Overcast
5:15 PM 33.8 °F 23.5 °F 32.0 °F 93% 29.56 in 3.0 mi South 16.1 mph - N/A   Overcast
5:35 PM 33.8 °F 23.9 °F 32.0 °F 93% 29.55 in 2.0 mi South 15.0 mph - 0.02 in   Overcast
5:55 PM 33.8 °F 23.9 °F 32.0 °F 93% 29.54 in 3.0 mi South 15.0 mph 19.6 mph 0.02 in   Overcast
6:15 PM 33.8 °F 24.3 °F 32.0 °F 93% 29.54 in 2.0 mi SSE 13.8 mph 19.6 mph N/A   Overcast
6:35 PM 33.8 °F 24.8 °F 32.0 °F 93% 29.53 in 2.0 mi SSE 12.7 mph 19.6 mph 0.01 in   Overcast
6:55 PM 33.8 °F 24.3 °F 32.0 °F 93% 29.53 in 3.0 mi South 13.8 mph - 0.04 in   Overcast
7:15 PM 33.8 °F 25.8 °F 32.0 °F 93% 29.53 in 3.0 mi SSE 10.4 mph 16.1 mph 0.01 in   Overcast
7:35 PM 33.8 °F 25.3 °F 32.0 °F 93% 29.53 in 2.5 mi SSE 11.5 mph 18.4 mph 0.04 in   Overcast
7:55 PM 33.8 °F 25.8 °F 32.0 °F 93% 29.52 in 4.0 mi SSE 10.4 mph - 0.07 in   Overcast
8:15 PM 33.8 °F 26.4 °F 32.0 °F 93% 29.52 in 4.0 mi SSE 9.2 mph - 0.04 in   Overcast
8:35 PM 35.6 °F 28.6 °F 32.0 °F 87% 29.51 in 5.0 mi SSE 9.2 mph - 0.06 in   Overcast
8:55 PM 35.6 °F 29.9 °F 32.0 °F 87% 29.50 in 4.0 mi SSE 6.9 mph - 0.12 in   Overcast
9:15 PM 35.6 °F 30.7 °F 33.8 °F 93% 29.50 in 5.0 mi SSE 5.8 mph - 0.04 in   Overcast
9:35 PM 35.6 °F 29.9 °F 33.8 °F 93% 29.49 in 7.0 mi SSE 6.9 mph - 0.04 in   Overcast
9:55 PM 35.6 °F 31.7 °F 33.8 °F 93% 29.49 in 4.0 mi SSE 4.6 mph - 0.05 in   Overcast
10:15 PM 35.6 °F 31.7 °F 33.8 °F 93% 29.48 in 3.0 mi South 4.6 mph - 0.01 in   Overcast
10:35 PM 35.6 °F 31.7 °F 33.8 °F 93% 29.48 in 4.0 mi South 4.6 mph - 0.01 in   Overcast
10:55 PM 35.6 °F - 33.8 °F 93% 29.47 in 4.0 mi Calm Calm - 0.01 in   Overcast
11:15 PM 35.6 °F 32.8 °F 33.8 °F 93% 29.47 in 3.0 mi NW 3.5 mph - 0.01 in   Overcast
11:35 PM 35.6 °F 29.9 °F 33.8 °F 93% 29.48 in 4.0 mi WNW 6.9 mph - 0.01 in   Overcast
11:55 PM 33.8 °F 25.3 °F 30.2 °F 87% 29.47 in 0.5 mi North 11.5 mph - 0.01 in   Overcast